Location: Unspecified
(35.6961°N, 0.0000°E)
Time: 14:52:00
(UTC+00:00)

Vanguard 2 Rocket - All Passes

Search period start: 25 May 2019 00:00
Search period end: 04 June 2019 00:00
Orbit: 555 x 3325 km, 32.9° (Epoch: 24 May)

Date Brightness Start Highest point End Pass type
(mag) Time Alt. Az. Time Alt. Az. Time Alt. Az.
25 May - 01:02:58 10° SSE 01:11:36 14° SE 01:19:58 10° ESE visible
25 May - 03:10:13 10° SSW 03:28:01 40° SSE 03:42:13 10° E visible
25 May - 05:25:57 10° WSW 05:45:04 67° SSE 05:57:11 10° E daylight
25 May - 07:45:14 10° W 08:01:22 79° S 08:10:18 10° E daylight
25 May - 10:04:39 10° W 10:15:48 53° SSW 10:22:06 10° SE daylight
25 May - 12:24:39 10° WSW 12:27:39 13° SW 12:30:10 10° SSW daylight
26 May - 02:10:20 10° SSW 02:26:32 31° SE 02:40:54 10° E visible
26 May - 04:24:02 10° SW 04:43:34 59° SSE 04:57:20 10° E daylight
26 May - 06:42:26 10° WSW 07:00:33 78° S 07:11:05 10° E daylight
26 May - 09:02:14 10° W 09:15:59 67° SSW 09:23:31 10° ESE daylight
26 May - 11:21:32 10° W 11:28:48 25° SW 11:33:42 10° SSE daylight
27 May - 01:11:40 10° S 01:25:12 23° SE 01:38:19 10° E visible
27 May - 03:22:46 10° SW 03:41:54 51° SSE 03:57:02 10° E visible
27 May - 05:39:47 10° WSW 05:59:17 75° S 06:11:36 10° E daylight
27 May - 07:59:32 10° W 08:15:41 76° S 08:24:38 10° ESE daylight
27 May - 10:19:06 10° W 10:29:40 40° SSW 10:35:56 10° SE daylight
28 May - 00:15:06 10° SSE 00:24:07 15° SE 00:33:19 10° ESE visible
28 May - 02:22:17 10° SSW 02:40:13 42° SSE 02:56:06 10° E visible
28 May - 04:37:33 10° WSW 04:57:40 69° SSE 05:11:47 10° E daylight
28 May - 06:56:41 10° W 07:14:53 80° S 07:25:28 10° E daylight
28 May - 09:16:35 10° W 09:30:03 56° SSW 09:37:35 10° SE daylight
28 May - 11:37:09 10° W 11:42:14 16° SW 11:46:08 10° SSW daylight
29 May - 01:22:45 10° SSW 01:38:41 33° SE 01:54:21 10° E visible
29 May - 03:35:55 10° SW 03:55:49 62° SSE 04:11:33 10° E visible
29 May - 05:53:54 10° WSW 06:13:35 80° S 06:25:59 10° E daylight
29 May - 08:13:50 10° W 08:29:53 69° SSW 08:38:52 10° ESE daylight
29 May - 10:33:51 10° W 10:43:14 29° SW 10:49:17 10° SSE daylight
30 May - 00:24:21 10° S 00:37:29 24° SE 00:51:19 10° E visible
30 May - 02:35:01 10° SW 02:53:55 53° SSE 03:10:50 10° E visible
30 May - 04:51:27 10° WSW 05:11:52 77° S 05:26:10 10° E daylight
30 May - 07:10:58 10° W 07:29:09 77° S 07:39:47 10° ESE daylight
30 May - 09:31:00 10° W 09:43:50 44° SW 09:51:23 10° SE daylight
30 May - 23:28:04 10° SSE 23:36:39 15° SE 23:45:52 10° ESE visible
31 May - 01:34:54 10° SSW 01:52:11 44° SE 02:09:27 10° E visible
31 May - 03:49:32 10° WSW 04:09:51 71° SSE 04:25:57 10° E visible
31 May - 06:08:08 10° W 06:27:53 81° S 06:40:21 10° E daylight
31 May - 08:28:09 10° W 08:43:53 58° SSW 08:52:54 10° SE daylight
31 May - 10:49:15 10° W 10:56:34 19° SW 11:01:50 10° S daylight
01 Jun - 00:35:42 10° SSW 00:50:46 34° SE 01:07:13 10° E visible
01 Jun - 02:48:18 10° SW 03:07:45 64° SSE 03:25:18 10° E visible
01 Jun - 05:05:35 10° W 05:26:07 81° S 05:40:31 10° E daylight
01 Jun - 07:25:16 10° W 07:43:19 70° SSW 07:53:59 10° ESE daylight
01 Jun - 09:45:41 10° W 09:57:20 32° SW 10:04:42 10° SSE daylight
01 Jun - 23:37:38 10° S 23:49:48 24° SE 00:03:43 10° E visible
02 Jun - 01:47:48 10° SW 02:05:45 54° SSE 02:24:06 10° E visible
02 Jun - 04:03:29 10° WSW 04:24:01 78° S 04:40:19 10° E visible
02 Jun - 06:22:26 10° W 06:42:09 78° S 06:54:38 10° ESE daylight
02 Jun - 08:42:33 10° W 08:57:37 46° SW 09:06:37 10° SE daylight
02 Jun - 11:06:53 10° WSW 11:09:41 11° SW 11:12:10 10° SW daylight
02 Jun - 22:41:45 10° SSE 22:49:17 15° SE 22:57:44 10° ESE visible
03 Jun - 00:48:04 10° SSW 01:04:06 44° SE 01:22:15 10° E visible
03 Jun - 03:02:00 10° WSW 03:21:43 73° SSE 03:39:40 10° E visible
03 Jun - 05:19:50 10° W 05:40:25 81° S 05:54:52 10° E daylight
03 Jun - 07:39:34 10° W 07:57:15 60° SSW 08:07:57 10° SE daylight
03 Jun - 10:00:58 10° W 10:10:35 22° SW 10:17:18 10° S daylight
